Location: Amsterdam
(30.7274°N, 84.4357°W)
Time: 05:11:47
(UTC+00:00)

Explorer 11/Cluster Stage 4 - Pass Details

Date: 19 February 2026
Orbit: 463 x 1175 km, 28.8° (Epoch: 13 March)

Event Time Altitude Azimuth Distance (km) Brightness Sun altitude
Rises 15:54:08 0° 217° (SW) 3,361 10.0 39.5°
Reaches altitude 10° 15:57:41 10° 198° (SSW) 2,267 9.5 40.0°
Maximum altitude 16:01:03 17° 158° (SSE) 1,690 9.7 40.5°
Drops below altitude 10° 16:04:03 10° 118° (ESE) 1,982 9.6 40.8°
Sets 16:06:52 0° 97° (E) 2,766 9.9 41.2°
